STARLINK-4648 (53602 NORAD) Tracking and Keplerian Element Data

This shows tracking and keplerian element data for the satellite.

Feedback or suggestion? Click here.




ElementValue
Catalog53602
NameSTARLINK-4648
Epoch Orbit1316
Epoch Day325.25001157
Epoch Year2022
RAAN246.2737
Inclination53.2157
Eccentricity0.0001722
Argument of Perigee51.3357
Mean Anonmoly266.9025
Mean Motion15.08809687
Decay Rate0.00048241
L11 53602U 22104Q 22325.25001157 .00048241 00000+0 30310-2 0 9997
L22 53602 53.2157 246.2737 0001722 51.3357 266.9025 15.08809687 13161



Live tracking and technical data element details for STARLINK-4648 (NORAD 53602). STARLINK-4648 can be tracked NOW for your location showing map with azimuth and elevation plus other details from your city location.







IsCatalogInMostPopularTable: catalog: 53602, numindb: 4
Update: records affected: 1



GetName: 53602 STARLINK-4648

Hit Count: updated at: Thu, 08 Dec 2022 19:23:06 GMT